Location: Beadle
(51.4667°N, 109.0000°W)
Time: 08:58:13
(UTC+00:00)

deb Explorer IX - Pass Details

Date: 03 June 2022
Orbit: 535 x 1068 km, 38.8° (Epoch: 04 July)

Event Time Altitude Azimuth Distance (km) Brightness Sun altitude
Rises 18:24:30 0° 255° (WSW) 3,853 ? 59.4°
Reaches altitude 10° 18:27:44 10° 244° (WSW) 2,883 ? 59.5°
Maximum altitude 18:33:21 26° 191° (SSW) 1,895 ? 59.9°
Drops below altitude 10° 18:38:40 10° 138° (SE) 2,704 ? 60.1°
Sets 18:41:35 0° 126° (SE) 3,569 ? 60.2°
